BREEZE-M DEB, 34242

Orbit data source: Space-Track

BREEZE-M DEB, 34242 is space debris in HEO originally from a launch on Tue, 28 Feb 2006 UTC launched from the Tyuratam Missile And Space Complex (TTMTR). Debris objects in space refer to the collection of defunct objects orbiting the Earth. Examples of debris include non-operational satellites, rocket bodies, and fragments generated from explosions, collisions, or faulty payload assembly.

Loading next visibility...
Identifier
34242, 2006-006BH
Orbit
HEO
Country
Flag of CISCIS
Related business
Manufacturer
Khrunichev
Mission
Spacecraft
Bus & Motor
Unknown
Mass
Unknown
Launch date (UTC)
2006-02-28 (20 years ago)
Launch vehicle
Unknown
Launch site
Tyuratam Missile And Space Complex (TTMTR)
Object type
Payload
Rocket body
Debris
Shape & HBR
Unknown shape, 0.1 m
Radar Cross Section
Medium (>0.1 m² and <1 m²)

Expand to show TLE details & history
Last TLE update: 4 days ago

TLE from 4 days ago
0 BREEZE-M DEB
1 34242U 06006BH  26159.42902865 -.00002526  00000-0 -24233-1 0  9998
2 34242  53.4291 263.0359 5029104  79.5277 331.3331  5.04294706259894
Epoch: 2026-06-08T10:17Z
TLE epoch observation values (Epoch: 2026-06-08T10:17:48.075Z)
Latitude
-0°
Longitude
-148.23577°
Altitude
3,451.188 km
Speed
7.305 km/s
True Right ascension
17h 32m 07s
True Declination
0° 00' 00"
Sunlit
Object was in full shadow at epoch
Visualization orbit readout
Latitude
Unknown
Longitude
Unknown
Altitude
Unknown
Speed
Unknown
Apparent Right ascension
Unknown
Apparent Declination
Unknown
Sunlit
N/A
Visualization observer readout
Local Sidereal Time
15:43:41
Azimuth
Unknown
Elevation
Unknown
Doppler factor
Unknown
Orbital elements
Apogee altitude
15,210.087 km
Perigee altitude
762.197 km
Semi-major axis
14,364.279 km
Eccentricity
0.50291
Inclination
53.4291°
RAAN
263.0359°
Arg. of periapsis
79.5277°
True anomaly
280.54674°
Mean anomaly
331.3331°
Eccentric anomaly
308.91213°
Mean motion
1.26072 °/min
Orbital period
285.55 mins
BSTAR
-0.024233
Loading maneuver chart data...
Computing Atmospheric mass density...
Loading historical data...
Loading historical data...
Loading historical data...
Loading historical data...
Loading historical data...
Loading historical data...
Loading historical data...

Documentation

Showing up to 5 results
|